Orbital Elements at Epoch 2459200.5 (2020-Dec-17.0) TDB
Reference: JPL 24 (heliocentric ecliptic J2000)
Element | Value | Uncertainty (1-sigma) | Units |
e | .2368583373044923 | 4.1746e-08 | |
a | 3.288834728724312 | 2.6768e-08 | au |
q | 2.5098468032094 | 1.3936e-07 | au |
i | .9416236682402542 | 4.1189e-06 | deg |
node | 301.2307551978033 | 0.00037097 | deg |
peri | 204.3978928340484 | 0.00037116 | deg |
M | 256.7972893782222 | 1.4454e-05 | deg |
tp | 2459825.025398184025 (2022-Sep-02.52539818) | 9.2653e-05 | TDB |
period | 2178.519750030727 5.96 | 2.6597e-05 7.282e-08 | d yr |
n | .1652498215795025 | 2.0175e-09 | deg/d |
Q | 4.067822654239223 | 3.3108e-08 | au |
|
| | Orbit Determination Parameters
Additional Information
|